Flag for Russia Weather past 2 weeks in Khabarovsk, Russia

Now
5 °F

Passing clouds.


Feels Like: -6 °F
Forecast: -1 / 16 °F
Wind: 6 mph from South

Location: Habarovsk

Current Time: Feb 27, 2015 at 10:18:02 PM

Latest Report: Feb 27, 2015 at 9:30 PM


Visibility: N/A

Pressure: 30.18 "Hg

Humidity: 85%

Dew point: 1 °F

Location of KhabarovskLocation

Historic Weather in Khabarovsk — Graph

°F

Khabarovsk temperature yesterday

Maximum temperature yesterday: 12 °F (at 2:30 PM)
Minimum temperature yesterday: -6 °F (at 5:30 AM)
Average temperature yesterday: 4 °F

Past Weeks' High & Low Weather Summary

 TemperatureHumidityPressure
High27 °F (Feb 18, 1:30 PM)100% (Feb 13, 11:30 PM)30.30 "Hg (Feb 13, 11:30 PM)
Low-6 °F (Feb 20, 8:00 AM)50% (Feb 20, 2:30 PM)29.53 "Hg (Feb 23, 12:30 AM)
Average10 °F89%30.03 "Hg
* Reported Feb 12 9:00 PM — Feb 27 9:00 PM, Khabarovsk, Weather by CustomWeather, © 2015

Note: Actual official high and low records may vary slightly from our data, if they occured in-between our weather recording intervals... More about our weather records

Advertising

Khabarovsk weather history for previous 24 hours

 ConditionsComfort  
Time TempWeatherWind HumidityBarometerVisibility
9:00 PM
Fri, Feb 27
7 °FClear.6 mph85%30.18 "Hg10 mi
8:30 PM7 °FClear.6 mph92%30.18 "Hg10 mi
8:00 PM7 °FClear.6 mph92%30.18 "Hg10 mi
7:30 PM7 °FSunny.6 mph92%30.15 "Hg10 mi
7:00 PM9 °FSunny.6 mph92%30.15 "Hg10 mi
6:30 PM12 °FSunny.3 mph79%30.15 "Hg10 mi
6:00 PM14 °FSunny.3 mph85%30.15 "Hg10 mi
5:30 PM16 °FSunny.3 mph79%30.12 "Hg10 mi
5:00 PM16 °FSunny.3 mph86%30.12 "Hg10 mi
4:30 PM16 °FSunny.3 mph86%30.12 "Hg10 mi
4:00 PM16 °FSunny.3 mph79%30.12 "Hg10 mi
3:30 PM16 °FSunny.1 mph86%30.12 "Hg10 mi
3:00 PM18 °FSunny.1 mph93%30.12 "Hg10 mi
2:30 PM14 °FSunny.1 mph92%30.09 "Hg10 mi
1:30 PM10 °FSunny.1 mph92%30.12 "Hg10 mi
12:30 PM10 °FSunny.1 mph100%30.12 "Hg10 mi
12:00 PM9 °FPartly sunny.No wind92%30.12 "Hg4 mi
11:30 AM7 °FPartly sunny.3 mph92%30.09 "Hg4 mi
11:00 AM3 °FPartly sunny.1 mph92%30.09 "Hg4 mi
10:30 AM1 °FPartly sunny.No wind92%30.09 "Hg4 mi
10:00 AM1 °FIce fog.No wind92%30.09 "Hg2 mi
9:30 AM-2 °FIce fog.No wind92%30.09 "Hg0 mi
9:00 AM-4 °FIce fog.No wind92%30.07 "Hg0 mi
8:30 AM-4 °FIce fog.1 mph84%30.07 "Hg0 mi
8:00 AM-4 °FIce fog.1 mph92%30.07 "Hg0 mi
7:30 AM-4 °FIce fog.1 mph92%30.04 "Hg1 mi
7:00 AM-4 °FPassing clouds.3 mph84%30.04 "Hg2 mi
6:30 AM-4 °FIce fog.1 mph92%30.04 "Hg1 mi
6:00 AM-2 °FIce fog.No wind92%30.04 "Hg1 mi
5:30 AM-6 °FPassing clouds.No wind84%30.04 "HgN/A
5:00 AM0 °FClear.No wind92%30.04 "Hg10 mi
4:30 AM0 °FClear.1 mph92%30.04 "Hg10 mi
4:00 AM-2 °FIce fog.1 mph92%30.01 "Hg3 mi
3:30 AM-4 °FIce fog.3 mph92%30.01 "Hg1 mi
3:00 AM-4 °FIce fog.3 mph92%30.01 "Hg1 mi
2:30 AM-6 °FIce fog.3 mph92%30.04 "Hg1 mi
2:00 AM-4 °FIce fog.1 mph84%30.04 "Hg2 mi
1:30 AM-4 °FIce fog.3 mph84%30.04 "Hg1 mi
1:00 AM-4 °FIce fog.1 mph84%30.04 "Hg1 mi
12:30 AM-4 °FIce fog.No wind92%30.04 "Hg1 mi
12:00 AM-4 °FIce fog.No wind92%30.04 "Hg3 mi
11:30 PM
Thu, Feb 26
-6 °FClear.1 mph92%30.04 "Hg10 mi
11:00 PM3 °FClear.3 mph92%30.04 "Hg10 mi
10:30 PM0 °FClear.3 mph92%30.04 "Hg10 mi
10:00 PM3 °FClear.3 mph92%30.04 "Hg10 mi
Weather by CustomWeather, © 2015

See weather overviewHow to use our weather pages